Resolute CS, Nunavut

3:44 PM MST on January 23, 2018 (GMT -0700)
Resolute CS

Weather History for CXRB - January, 2014

Change the Weather History Date:

Sunday, January 26, 2014

  Actual Average (CYRB) Record (CYRB)
Temperature  
Mean Temperature -24 °F -  
Max Temperature -10 °F -19 °F -5 °F (2009)
Min Temperature -38 °F -28 °F -43 °F (1998)
Degree Days  
Heating Degree Days 89    
Moisture  
Dew Point -28 °F    
Average Humidity 73    
Maximum Humidity 89    
Minimum Humidity 56    
Precipitation  
Precipitation 0.00 in - - ()
Sea Level Pressure  
Sea Level Pressure 30.18 in    
Wind  
Wind Speed 10 mph ()    
Max Wind Speed 17 mph    
Max Gust Speed 20 mph    
Averages and records for this station are not official NWS values.
T = Trace of Precipitation, MM = Missing Value Source: Averaged Metar Reports

Daily Weather History Graph

Daily Weather History Graph

Search for Another Location

Airport or City:

Trip Planner

Search our weather history database for the weather conditions in past years. The results will help you decide how hot, cold, wet, or windy it might be!

Date:

Astronomy

Dec. 31, 1969 Rise Set
Actual Time Sun does not rise Sun does not rise
Civil Twilight 9:10 AM MST 1:55 PM MST
Nautical Twilight 7:07 AM MST 3:59 PM MST
Astronomical Twilight 5:31 AM MST 5:34 PM MST
Moon No Moon Rise No Moon Set
Length of Visible Light 4h 45m
Length of Day
0h 00m
Waning Crescent, 23% of the Moon is Illuminated
Jan 26
Waning Crescent
Jan 30
New
Feb 6
First Quarter
Feb 14
Full
Feb 22
Last Quarter

Hourly Weather History & Observations

Time (MST) Temp. Windchill Dew Point Humidity Pressure Visibility Wind Dir Wind Speed Gust Speed Precip Events Conditions
12:00 AM -35.9 °F -57.9 °F -43.1 °F 68% 30.11 in - NW 8.1 mph - N/A   Unknown
1:00 AM -34.6 °F -61.6 °F -41.6 °F 68% 30.12 in - NNW 12.7 mph - N/A   Unknown
2:00 AM -31.9 °F -55.9 °F -40.5 °F 63% 30.14 in - NW 10.4 mph - N/A   Unknown
3:00 AM -32.8 °F -58.2 °F -39.6 °F 69% 30.16 in - NNW 11.5 mph - N/A   Unknown
4:00 AM -32.3 °F -59.7 °F -38.9 °F 70% 30.16 in - NNW 13.8 mph - N/A   Unknown
5:00 AM -32 °F - -38 °F 56% 30.18 in - NNW 11.5 mph - -  
5:00 AM -31.5 °F -56.6 °F -38.2 °F 70% 30.18 in - NNW 11.5 mph 17.3 mph N/A   Unknown
6:00 AM -31.4 °F -57.5 °F -38.0 °F 70% 30.18 in - NNW 12.7 mph - N/A   Unknown
7:00 AM -28.3 °F -54.7 °F -36.6 °F 65% 30.18 in - NW 13.8 mph - N/A   Unknown
8:00 AM -29.4 °F -46.4 °F -35.9 °F 71% 30.20 in - NNW 5.8 mph - N/A   Unknown
9:00 AM -29.7 °F -54.4 °F -36.2 °F 71% 30.19 in - NW 11.5 mph - N/A   Unknown
10:00 AM -28.5 °F -52.8 °F -34.8 °F 72% 30.19 in - NNW 11.5 mph - N/A   Unknown
11:00 AM -25 °F - -31 °F 60% 30.18 in - NW 10.4 mph - -  
11:00 AM -24.9 °F -47.1 °F -30.8 °F 74% 30.18 in - NW 10.4 mph - N/A   Unknown
12:00 PM -23.6 °F -46.7 °F -29.4 °F 74% 30.19 in - NNW 11.5 mph - N/A   Unknown
1:00 PM -17.3 °F -39.8 °F -22.5 °F 77% 30.19 in - NW 12.7 mph - N/A   Unknown
2:00 PM -12.1 °F -34.1 °F -18.6 °F 73% 30.19 in - NW 13.8 mph - N/A   Unknown
3:00 PM -11.9 °F -34.6 °F -16.4 °F 80% 30.20 in - NW 15.0 mph - N/A   Unknown
4:00 PM -11.2 °F -32.9 °F -13.9 °F 88% 30.21 in - NW 13.8 mph - N/A   Unknown
5:00 PM -11 °F - -15 °F 72% 30.19 in - NW 17.3 mph - -  
5:00 PM -10.8 °F -34.7 °F -15.2 °F 81% 30.19 in - NW 17.3 mph - N/A   Unknown
6:00 PM -10.7 °F -33.8 °F -15.0 °F 81% 30.20 in - NW 16.1 mph - N/A   Unknown
7:00 PM -11.4 °F -33.1 °F -13.9 °F 89% 30.20 in - NNW 13.8 mph 19.6 mph N/A   Unknown
8:00 PM -13.5 °F -34.1 °F -18.2 °F 80% 30.20 in - NNW 11.5 mph - N/A   Unknown
9:00 PM -15.0 °F -34.8 °F -19.8 °F 79% 30.19 in - NNW 10.4 mph - N/A   Unknown
10:00 PM -16.4 °F -34.2 °F -21.3 °F 79% 30.18 in - North 8.1 mph - N/A   Unknown
11:00 PM -16 °F - -21 °F 65% 30.19 in - NNW 8.1 mph - -  
11:00 PM -16.2 °F -34.0 °F -21.3 °F 78% 30.19 in - NNW 8.1 mph - N/A   Unknown